User: anonymous
Location: Oshawa
(43.9000°N, 78.8670°W)
Time: 01:31:46
(UTC-04:00)
Language:

CZ-4C R/B - Orbit

View from above orbital plane
View from above orbital plane
View from above satellite
View from above satellite

Ground track
Ground track

The orbit data is extracted from the following two-line orbital elements,

1 32290U 07055B   14234.76627449  .00004613  00000-0  18077-3 0  9329
2 32290 097.5725 309.9360 0088156 176.0290 337.3692 15.22712428374401
Epoch (UTC): 22 August 2014 18:23:26
Eccentricity: 0.0088156
inclination: 97.5725°
perigee height: 437 km
apogee height: 558 km
right ascension of ascending node: 309.9360°
argument of perigee: 176.0290°
revolutions per day: 15.22712428
mean anomaly at epoch: 337.3692°
orbit number at epoch: 37440

The dashed part of the orbit path shows where the satellite is in the earth's shadow,  

DLR